Date String (YYYY-MM-DD hh:mm:ss) UTC,Instrument flags,absolute air pressure of the measurement (hPa),sample flow rate (lpm),inlet stack bypass flow (lpm),air temperature of the measurement (°C),ambient temperature measured by the external sensor (°C),aerosol sample conditioner tube jacket temperature (°C),OPC LED temperature (°C),internal box temperature (°C),relative humidity of the measurement (%),span deviation,mass concentration of particles derived from Lorenz-Mie calculation of OPC scattering (μg/m³),mass concentration of particles derived from Lorenz-Mie calculation of OPC scattering (μg/m³),mass concentration of particles derived from Lorenz-Mie calculation of OPC scattering (μg/m³)
DateTimeUTC,F1_M11,P_M11,Q1_M11,Q2_M11,T1_M11,T2_M11,T3_M11,T4_M11,T5_M11,U1_M11,ZSPAN_M11,X0_M11,X2_M11,X1_M11
2023-10-02 16:00:00,SystemResetWarning,0829.3,5.00,000.00,028.8,027.5,000.0,037.1,030.5,22.7,0000.0,0008.80,0004.51,0003.68
2023-10-02 16:01:00,SystemResetWarning,0829.4,5.00,000.00,028.8,027.6,000.0,037.1,030.5,22.8,0000.0,0008.83,0004.50,0003.67
2023-10-02 16:02:00,SystemResetWarning,0829.3,5.00,000.00,028.8,027.6,000.0,037.2,030.5,23.0,0000.0,0008.90,0004.52,0003.66
2023-10-02 16:03:00,SystemResetWarning,0829.3,4.99,000.00,028.8,027.6,000.0,037.2,030.6,23.0,0000.0,0009.21,0004.53,0003.67
2023-10-02 16:04:00,SystemResetWarning,0829.4,5.00,000.00,028.8,027.6,000.0,037.2,030.6,22.8,0000.0,0008.97,0004.50,0003.65
2023-10-02 16:05:00,SystemResetWarning,0829.3,4.99,000.00,028.9,027.6,000.0,037.2,030.6,23.3,0000.0,0009.03,0004.50,0003.64
2023-10-02 16:06:00,SystemResetWarning,0829.3,5.00,000.00,028.9,027.7,000.0,037.2,030.6,23.4,0000.0,0009.79,0004.52,0003.64
2023-10-02 16:07:00,SystemResetWarning,0829.3,4.99,000.00,028.9,027.7,000.0,037.2,030.6,22.6,0000.0,0010.84,0004.52,0003.63
2023-10-02 16:08:00,SystemResetWarning,0829.2,5.00,000.00,028.9,027.7,000.0,037.2,030.7,22.6,0000.0,0011.23,0004.51,0003.62
2023-10-02 16:09:00,SystemResetWarning,0829.2,5.01,000.00,028.9,027.7,000.0,037.3,030.7,22.6,0000.0,0011.77,0004.51,0003.62
2023-10-02 16:10:00,SystemResetWarning,0829.2,5.00,000.00,028.9,027.7,000.0,037.3,030.7,22.9,0000.0,0012.25,0004.52,0003.63
2023-10-02 16:11:00,SystemResetWarning,0829.2,5.00,000.00,029.0,027.7,000.0,037.3,030.7,23.1,0000.0,0012.55,0004.56,0003.63
2023-10-02 16:12:00,SystemResetWarning,0829.4,5.00,000.00,029.0,027.8,000.0,037.3,030.7,23.2,0000.0,0013.24,0004.64,0003.64
2023-10-02 16:13:00,SystemResetWarning,0829.3,5.00,000.00,029.0,027.8,000.0,037.3,030.7,23.2,0000.0,0013.18,0004.64,0003.66
2023-10-02 16:14:00,SystemResetWarning,0829.3,5.00,000.00,029.0,027.8,000.0,037.3,030.7,22.6,0000.0,0012.96,0004.65,0003.66
2023-10-02 16:15:00,SystemResetWarning,0829.2,5.00,000.00,029.0,027.8,000.0,037.3,030.7,22.9,0000.0,0014.31,0004.67,0003.68
2023-10-02 16:16:00,SystemResetWarning,0829.2,5.00,000.00,029.0,027.8,000.0,037.4,030.8,22.8,0000.0,0015.72,0004.69,0003.68
2023-10-02 16:17:00,SystemResetWarning,0829.2,5.00,000.00,029.0,027.8,000.0,037.4,030.8,22.6,0000.0,0015.30,0004.70,0003.70
2023-10-02 16:18:00,SystemResetWarning,0829.2,5.00,000.00,029.0,027.8,000.0,037.4,030.8,22.4,0000.0,0014.64,0004.65,0003.71
2023-10-02 16:19:00,SystemResetWarning,0829.1,5.00,000.00,029.1,027.8,000.0,037.4,030.8,22.4,0000.0,0014.55,0004.67,0003.72
2023-10-02 16:20:00,SystemResetWarning,0829.1,5.00,000.00,029.1,027.9,000.0,037.4,030.8,22.6,0000.0,0014.18,0004.67,0003.72
2023-10-02 16:21:00,SystemResetWarning,0829.1,5.00,000.00,029.1,027.9,000.0,037.5,030.8,22.6,0000.0,0014.38,0004.69,0003.72
2023-10-02 16:22:00,SystemResetWarning,0829.1,5.00,000.00,029.1,027.9,000.0,037.5,030.9,22.7,0000.0,0014.36,0004.66,0003.72
2023-10-02 16:23:00,SystemResetWarning,0829.1,5.00,000.00,029.1,027.9,000.0,037.5,030.9,22.5,0000.0,0013.70,0004.62,0003.73
2023-10-02 16:24:00,SystemResetWarning,0829.1,5.00,000.00,029.2,028.0,000.0,037.5,030.9,22.7,0000.0,0014.74,0004.57,0003.72
2023-10-02 16:25:00,SystemResetWarning,0829.1,5.00,000.00,029.2,028.0,000.0,037.5,030.9,22.8,0000.0,0015.13,0004.57,0003.73
2023-10-02 16:26:00,SystemResetWarning,0829.1,5.00,000.00,029.2,028.0,000.0,037.5,030.9,22.4,0000.0,0014.11,0004.56,0003.73
2023-10-02 16:27:00,SystemResetWarning,0829.1,5.00,000.00,029.2,028.0,000.0,037.5,030.9,22.1,0000.0,0012.78,0004.60,0003.74
2023-10-02 16:28:00,SystemResetWarning,0829.2,5.00,000.00,029.2,028.0,000.0,037.5,030.9,22.0,0000.0,0012.39,0004.57,0003.74
2023-10-02 16:29:00,SystemResetWarning,0829.2,5.00,000.00,029.2,028.0,000.0,037.6,030.9,22.0,0000.0,0011.99,0004.60,0003.75
2023-10-02 16:30:00,SystemResetWarning,0829.2,4.99,000.00,029.2,028.0,000.0,037.6,031.0,21.9,0000.0,0011.30,0004.55,0003.76
2023-10-02 16:31:00,SystemResetWarning,0829.3,4.98,000.00,029.3,027.4,000.0,037.6,031.0,21.9,0000.0,0011.28,0004.57,0003.77
2023-10-02 16:32:00,SystemResetWarning,0829.2,5.00,000.00,029.2,025.7,000.0,037.5,030.8,22.2,0000.0,0011.40,0004.60,0003.78
2023-10-02 16:33:00,SystemResetWarning,0829.2,5.01,000.00,029.1,025.2,000.0,037.5,030.7,22.4,0000.0,0011.24,0004.66,0003.79
2023-10-02 16:34:00,SystemResetWarning,0829.2,5.01,000.00,029.0,025.4,000.0,037.5,030.5,22.6,0000.0,0011.22,0004.66,0003.80
2023-10-02 16:35:00,SystemResetWarning,0829.2,5.00,000.00,029.0,025.7,000.0,037.5,030.4,22.6,0000.0,0010.81,0004.70,0003.81
2023-10-02 16:36:00,SystemResetWarning,0829.2,5.00,000.00,028.9,026.0,000.0,037.5,030.4,22.8,0000.0,0010.90,0004.74,0003.82
2023-10-02 16:37:00,SystemResetWarning,0829.2,5.01,000.00,028.9,026.3,000.0,037.5,030.4,22.9,0000.0,0011.56,0004.77,0003.82
2023-10-02 16:38:00,SystemResetWarning,0829.2,5.00,000.00,028.9,026.6,000.0,037.4,030.4,23.0,0000.0,0011.55,0004.74,0003.84
2023-10-02 16:39:00,SystemResetWarning,0829.1,5.01,000.00,028.9,026.8,000.0,037.4,030.5,23.2,0000.0,0011.81,0004.75,0003.83
2023-10-02 16:40:00,SystemResetWarning,0829.1,5.00,000.00,028.9,027.0,000.0,037.4,030.5,23.2,0000.0,0012.01,0004.80,0003.84
2023-10-02 16:41:00,SystemResetWarning,0829.1,5.00,000.00,028.9,027.2,000.0,037.4,030.5,23.3,0000.0,0013.02,0004.85,0003.83
2023-10-02 16:42:00,SystemResetWarning,0829.1,5.00,000.00,028.9,027.3,000.0,037.4,030.6,23.4,0000.0,0013.55,0004.89,0003.83
2023-10-02 16:43:00,SystemResetWarning,0829.1,5.00,000.00,028.9,027.4,000.0,037.4,030.6,23.4,0000.0,0013.33,0004.86,0003.83
2023-10-02 16:44:00,SystemResetWarning,0829.1,4.99,000.00,028.9,027.5,000.0,037.4,030.6,23.4,0000.0,0013.13,0004.84,0003.81
2023-10-02 16:45:00,SystemResetWarning,0829.1,5.00,000.00,028.9,027.6,000.0,037.4,030.6,23.4,0000.0,0013.14,0004.81,0003.80
2023-10-02 16:46:00,SystemResetWarning,0829.1,5.00,000.00,028.9,027.6,000.0,037.4,030.7,23.6,0000.0,0013.50,0004.78,0003.79
2023-10-02 16:47:00,SystemResetWarning,0829.1,5.00,000.00,029.0,027.7,000.0,037.4,030.7,23.3,0000.0,0013.03,0004.79,0003.79
2023-10-02 16:48:00,SystemResetWarning,0829.1,5.00,000.00,029.0,027.8,000.0,037.4,030.7,23.4,0000.0,0012.58,0004.79,0003.79
2023-10-02 16:49:00,SystemResetWarning,0829.1,5.00,000.00,029.0,027.8,000.0,037.4,030.8,23.4,0000.0,0012.11,0004.83,0003.80
2023-10-02 16:50:00,SystemResetWarning,0829.1,5.00,000.00,029.0,027.9,000.0,037.4,030.8,23.3,0000.0,0012.21,0004.86,0003.81
2023-10-02 16:51:00,SystemResetWarning,0829.1,4.99,000.00,029.1,027.9,000.0,037.4,030.8,23.2,0000.0,0012.17,0004.83,0003.81
2023-10-02 16:52:00,SystemResetWarning,0829.1,5.00,000.00,029.1,027.9,000.0,037.5,030.9,23.4,0000.0,0011.69,0004.87,0003.81
2023-10-02 16:53:00,SystemResetWarning,0829.1,5.00,000.00,029.1,026.8,000.0,037.5,030.8,23.3,0000.0,0010.99,0004.86,0003.81
2023-10-02 16:54:00,SystemResetWarning,0829.0,5.00,000.00,029.0,025.0,000.0,037.4,030.6,23.3,0000.0,0011.00,0004.88,0003.81
2023-10-02 16:55:00,SystemResetWarning,0829.0,5.01,000.00,028.9,024.7,000.0,037.3,030.5,23.3,0000.0,0010.92,0004.89,0003.83
2023-10-02 16:56:00,SystemResetWarning,0828.9,5.00,000.00,028.8,024.9,000.0,037.3,030.2,23.5,0000.0,0010.75,0004.92,0003.83
2023-10-02 16:57:00,SystemResetWarning,0828.9,5.00,000.00,028.7,025.3,000.0,037.3,030.2,23.7,0000.0,0010.32,0004.91,0003.84
2023-10-02 16:58:00,SystemResetWarning,0829.0,5.01,000.00,028.7,025.7,000.0,037.3,030.2,23.6,0000.0,0010.19,0004.94,0003.87
2023-10-02 16:59:00,SystemResetWarning,0829.0,4.99,000.00,028.7,026.0,000.0,037.3,030.2,23.5,0000.0,0009.88,0004.92,0003.87
